Location: Newark
(25.6108°S, 54.5803°W)
Time: 08:54:35
(UTC+00:00)

Tiros 1 - Pass Details

Date: 03 November 2020
Orbit: 630 x 664 km, 48.4° (Epoch: 29 November)

Event Time Altitude Azimuth Distance (km) Brightness Sun altitude
Rises 22:12:03 0° 211° (SSW) 3,018 11.5 -4.2°
Reaches altitude 10° 22:15:01 10° 194° (SSW) 2,100 10.3 -4.9°
Maximum altitude 22:18:33 20° 147° (SSE) 1,540 9.0 -5.6°
Drops below altitude 10° 22:22:05 10° 100° (E) 2,084 9.2 -6.4°
Enters shadow 22:23:14 - 91° (E) 2,417 9.5 -6.6°
Sets 22:24:59 0° 82° (E) 2,987 - -7.0°
